Weather History for KRDM - November, 2014

Change the Weather History Date:

Friday, November 7, 2014

  Actual Average Record
Temperature  
Mean Temperature 42 °F 40 °F  
Max Temperature 57 °F 53 °F 70 °F (2004)
Min Temperature 27 °F 28 °F 8 °F (1973)
Degree Days  
Heating Degree Days 23 25  
Month to date heating degree days 128 166  
Since 1 July heating degree days 762 1111  
Cooling Degree Days 0 0  
Month to date cooling degree days 0 0  
Year to date cooling degree days 311 222  
Moisture  
Dew Point 32 °F    
Average Humidity 72    
Maximum Humidity 100    
Minimum Humidity 43    
Precipitation  
Precipitation 0.00 in 0.03 in 0.57 in (1980)
Month to date precipitation 0.07 0.21  
Year to date precipitation 6.15 6.99  
Sea Level Pressure  
Sea Level Pressure 30.38 in    
Wind  
Wind Speed 2 mph (SE)    
Max Wind Speed 10 mph    
Max Gust Speed 13 mph    
Visibility 10 miles    
Events      
T = Trace of Precipitation, MM = Missing Value Source: NWS Daily Summary

Daily Weather History Graph

Daily Weather History Graph

Search for Another Location

Airport or City:

Trip Planner

Search our weather history database for the weather conditions in past years. The results will help you decide how hot, cold, wet, or windy it might be!

Date:

Astronomy

Nov. 07, 2014 Rise Set
Actual Time 6:49 AM PST 4:46 PM PST
Civil Twilight 6:19 AM PST 5:16 PM PST
Nautical Twilight 5:44 AM PST 5:51 PM PST
Astronomical Twilight 5:10 AM PST 6:25 PM PST
Moon 5:42 PM PST (11/7) 7:31 AM PST (11/7)
Length of Visible Light 10h 57m
Length of Day
9h 56m
Full, 99% of the Moon is Illuminated
Nov 7
Full
Nov 14
Last Quarter
Nov 22
New
Nov 29
First Quarter
Dec 6
Full

Hourly Weather History & Observations

Time (PST) Temp. Windchill Dew Point Humidity Pressure Visibility Wind Dir Wind Speed Gust Speed Precip Events Conditions
12:56 AM 37.0 °F - 35.1 °F 93% 30.31 in 10.0 mi Calm Calm - N/A   Scattered Clouds
1:56 AM 34.0 °F - 32.0 °F 92% 30.31 in 10.0 mi Calm Calm - N/A   Partly Cloudy
2:56 AM 30.9 °F - 30.0 °F 96% 30.34 in 10.0 mi Calm Calm - N/A   Clear
3:56 AM 30.0 °F - 28.9 °F 96% 30.38 in 10.0 mi Calm Calm - N/A   Scattered Clouds
4:56 AM 30.0 °F - 28.0 °F 92% 30.39 in 10.0 mi Calm Calm - N/A   Clear
5:56 AM 28.0 °F 24.2 °F 27.0 °F 96% 30.41 in 10.0 mi SW 3.5 mph - N/A   Partly Cloudy
6:56 AM 28.9 °F - 28.0 °F 96% 30.42 in 10.0 mi Calm Calm - N/A   Scattered Clouds
7:56 AM 34.0 °F - 32.0 °F 92% 30.43 in 10.0 mi Calm Calm - N/A   Partly Cloudy
8:56 AM 42.1 °F 40.2 °F 35.1 °F 76% 30.42 in 10.0 mi ESE 3.5 mph - N/A   Clear
9:56 AM 48.0 °F - 35.1 °F 61% 30.41 in 10.0 mi ESE 3.5 mph - N/A   Clear
10:56 AM 50.0 °F - 35.1 °F 57% 30.41 in 10.0 mi Calm Calm - N/A   Clear
11:56 AM 52.0 °F - 35.1 °F 53% 30.39 in 10.0 mi NE 3.5 mph - N/A   Clear
12:56 PM 53.1 °F - 34.0 °F 48% 30.37 in 10.0 mi Calm Calm - N/A   Clear
1:56 PM 55.9 °F - 34.0 °F 44% 30.35 in 10.0 mi Calm Calm - N/A   Clear
2:56 PM 55.9 °F - 33.1 °F 42% 30.35 in 10.0 mi NE 4.6 mph - N/A   Clear
3:56 PM 55.0 °F - 33.1 °F 43% 30.35 in 10.0 mi NNW 5.8 mph - N/A   Clear
4:56 PM 48.0 °F - 35.1 °F 61% 30.37 in 10.0 mi NW 9.2 mph - N/A   Clear
5:56 PM 41.0 °F - 33.1 °F 73% 30.39 in 10.0 mi Calm Calm - N/A   Clear
6:56 PM 37.0 °F - 32.0 °F 82% 30.40 in 10.0 mi Calm Calm - N/A   Clear
7:56 PM 34.0 °F 29.8 °F 30.0 °F 85% 30.40 in 10.0 mi South 4.6 mph - N/A   Clear
8:56 PM 35.1 °F - 30.9 °F 85% 30.39 in 10.0 mi Calm Calm - N/A   Clear
9:56 PM 32.0 °F 27.5 °F 30.0 °F 92% 30.39 in 10.0 mi SSE 4.6 mph - N/A   Clear
10:56 PM 32.0 °F 25.6 °F 30.0 °F 92% 30.38 in 10.0 mi South 6.9 mph - N/A   Clear
11:56 PM 30.9 °F 25.2 °F 28.9 °F 92% 30.37 in 10.0 mi SSE 5.8 mph - N/A   Clear